Regional Weather Roundup
Issued by NWS State College, PA

Home | Current Version | Previous Version | Graphics & Text | Print | Product List | Glossary Off
Versions: 1 2 3 4 5 6 7 8 9 10 11 12 13 14 15 16 17 18 19 20 21 22 23 24 25 26 27 28 29 30 31 32 33 34 35 36 37 38 39 40 41 42 43 44 45 46 47 48 49 50

000
ASUS41 KCTP 271803
RWRCTP

REGIONAL WEATHER ROUNDUP
NATIONAL WEATHER SERVICE STATE COLLEGE PA
200 PM EDT SUN JUL 27 2014

Note: "fair" indicates few or no clouds below 12,000 feet with no
significant weather and/or obstructions to visibility.

* = STATION THAT DOES NOT REPORT PRECIPITATION /E.G. RAIN...SNOW...ETC/
    THUNDER OR FOG.

PAZ002>004-007>009-013>016-020>023-029>032-271900-
WESTERN PENNSYLVANIA

CITY           SKY/WX    TMP DP  RH WIND       PRES   REMARKS
ERIE           MOSUNNY   80  68  66 NW9       29.73F
MEADVILLE      MOSUNNY   80  64  58 S10       29.78F
FRANKLIN*      PTSUNNY   81  64  57 S8        29.80F
NEW CASTLE       N/A     83  70  64 VRB6      29.77F
BEAVER COUNTY  CLOUDY    81  70  69 W3        29.78F
BUTLER*        PTSUNNY   81  70  69 W6        29.81S
PITTSBURGH INT PTSUNNY   82  68  62 SW14G20   29.78F
PITTSBURGH     PTSUNNY   82  68  62 SW12      29.79S
INDIANA*       PTSUNNY   79  68  69 W9        29.84F
LATROBE        PTSUNNY   81  72  74 SW13      29.80F
WASHINGTON CO* CLOUDY    79  70  73 S8        29.81S
$$

PAZ004>006-010>012-017>019-024>028-033>037-041-042-045-046-049>053-271900-
CENTRAL PENNSYLVANIA

CITY           SKY/WX    TMP DP  RH WIND       PRES   REMARKS
BRADFORD       PTSUNNY   78  60  53 SW9       29.81F
DUBOIS         PTSUNNY   80  65  59 SW10      29.81F
CLEARFIELD     MOSUNNY   80  62  54 SW10      29.80F
JOHNSTOWN      MOSUNNY   77  66  68 W9        29.84F
ALTOONA        MOSUNNY   85  65  51 W9        29.80F
STATE COLLEGE  MOSUNNY   82  64  54 W13G18    29.79F
WILLIAMSPORT   MOSUNNY   88  62  41 SW14      29.71F
SELINSGROVE    SUNNY     87  66  49 VRB3      29.74F
FT INDIANTOWN  MOSUNNY   87  65  47 W7        29.76S
CAPITAL CITY   PTSUNNY   88  65  46 W8        29.74F
HARRISBURG     PTSUNNY   89  68  49 W9        29.73F
YORK           MOSUNNY   86  67  52 W8        29.76F
$$

PAZ038>040-043-044-047-048-054-055-060>062-067>071-271900-
EASTERN PENNSYLVANIA

CITY           SKY/WX    TMP DP  RH WIND       PRES   REMARKS
SCRANTON       PTSUNNY   85  62  46 SW6       29.74F
MOUNT POCONO   MOSUNNY   78  61  55 W12       29.80F
ALLENTOWN      SUNNY     85  66  53 SW13      29.74F
QUAKERTOWN*    PTCLDY    82  68  61 W7        29.76F
READING        MOSUNNY   87  69  54 W9        29.74F
LANCASTER      PTSUNNY   84  67  56 W5        29.75F
COATESVILLE    PTCLDY    84  70  61 NW7       29.78S
POTTSTOWN      PTSUNNY   84  66  54 VRB5      29.76F
BLUE BELL      MOSUNNY   84  70  61 W3        29.74F
DOYLESTOWN     SUNNY     85  68  56 NW6       29.75F
WILLOW GROVE   NOT AVBL
NORTH PHILA    PTSUNNY   87  67  51 W7        29.75F
PHILADELPHIA   PTSUNNY   88  68  51 SW12      29.74F
$$


USA.gov is the U.S. government's official web portal to all federal, state and local government web resources and services.